KUIPER-00157

导读 | 豆包AI

KUIPER-00157是美国亚马逊公司柯伊伯(Project Kuiper)低轨互联网星座的组网卫星,于2025年10月14日发射入轨。该星座计划部署3236颗卫星,运行于近地轨道,旨在为全球提供高速、低延迟的天基宽带互联网服务。作为星座组网阶段的卫星之一,KUIPER-00157采用改进技术,将助力亚马逊完成全球卫星互联网覆盖目标,参与低轨星座市场竞争。

Basic Information
目录编号:
65970
目录名称:
KUIPER-00157
国际标识:
2025-228Z
轨道中心:
EARTH
卫星名称:
KUIPER-00157
卫星全名:
KUIPER-00157
卫星状态:
在轨 (已飞行223 天)
发射日期:
2025-10-14 UTC
国别 :
美国 (US)
星等 :
--
Orbit Information
数据来源 国际轨道数据
星历时间: 2026-05-24T08:22:10+0800
1天前
查看轨道信息
半长轴: 7007.717km
偏心率: 0.0000735
轨道倾角: 51.904°
近地点辐角 104.327°
升交点赤经 5.143°
平近点角 255.777°
近地点: 629.064km
远地点: 630.096km
周期: 97.303分钟
每日圈数: 14.799191
Detailed Information
使用方式:
暂无
2D Orbit Map
3D Orbit Map
Orbit Altitude Analysis Chart
Orbit Inclination Analysis Chart
Orbit Comprehensive Analysis Chart
View Comprehensive Chart